Year,Month,Day,Hour,Minute,Value (Times are PST for temperature in C)
2014,05,05,00,00,8.60
2014,05,05,00,01,8.60
2014,05,05,00,02,8.60
2014,05,05,00,03,8.70
2014,05,05,00,04,8.70
2014,05,05,00,05,8.70
2014,05,05,00,06,8.70
2014,05,05,00,07,8.70
2014,05,05,00,08,8.70
2014,05,05,00,09,8.80
2014,05,05,00,10,8.70
2014,05,05,00,11,8.70
2014,05,05,00,12,8.70
2014,05,05,00,13,8.70
2014,05,05,00,14,8.70
2014,05,05,00,15,8.70
2014,05,05,00,16,8.70
2014,05,05,00,17,8.70
2014,05,05,00,18,8.70
2014,05,05,00,19,8.70
2014,05,05,00,20,8.70
2014,05,05,00,21,8.70
2014,05,05,00,22,8.70
2014,05,05,00,23,8.70
2014,05,05,00,24,8.70
2014,05,05,00,25,8.70
2014,05,05,00,26,8.60
2014,05,05,00,27,8.60
2014,05,05,00,28,8.60
2014,05,05,00,29,8.60
2014,05,05,00,30,8.60
2014,05,05,00,31,8.60
2014,05,05,00,32,8.60
2014,05,05,00,33,8.60
2014,05,05,00,34,8.60
2014,05,05,00,35,8.60
2014,05,05,00,36,8.60
2014,05,05,00,37,8.60
2014,05,05,00,38,8.60
2014,05,05,00,39,8.60
2014,05,05,00,40,8.60
2014,05,05,00,41,8.60
2014,05,05,00,42,8.60
2014,05,05,00,43,8.60
2014,05,05,00,44,8.60
2014,05,05,00,45,8.60
2014,05,05,00,46,8.60
2014,05,05,00,47,8.60
2014,05,05,00,48,8.60
2014,05,05,00,49,8.60
2014,05,05,00,50,8.60
2014,05,05,00,51,8.60
2014,05,05,00,52,8.60
2014,05,05,00,53,8.60
2014,05,05,00,54,8.60
2014,05,05,00,55,8.70
2014,05,05,00,56,8.70
2014,05,05,00,57,8.70
2014,05,05,00,58,8.70
2014,05,05,00,59,8.70
2014,05,05,01,00,8.70
2014,05,05,01,01,8.70
2014,05,05,01,02,8.70
2014,05,05,01,03,8.70
2014,05,05,01,04,8.70
2014,05,05,01,05,8.70
2014,05,05,01,06,8.70
2014,05,05,01,07,8.70
2014,05,05,01,08,8.70
2014,05,05,01,09,8.70
2014,05,05,01,10,8.70
2014,05,05,01,11,8.70
2014,05,05,01,12,8.70
2014,05,05,01,13,8.70
2014,05,05,01,14,8.70
2014,05,05,01,15,8.70
2014,05,05,01,16,8.70
2014,05,05,01,17,8.70
2014,05,05,01,18,8.70
2014,05,05,01,19,8.70
2014,05,05,01,20,8.70
2014,05,05,01,21,8.70
2014,05,05,01,22,8.60
2014,05,05,01,23,8.60
2014,05,05,01,24,8.60
2014,05,05,01,25,8.60
2014,05,05,01,26,8.60
2014,05,05,01,27,8.60
2014,05,05,01,28,8.60
2014,05,05,01,29,8.60
2014,05,05,01,30,8.60
2014,05,05,01,31,8.60
2014,05,05,01,32,8.60
2014,05,05,01,33,8.60
2014,05,05,01,34,8.50
2014,05,05,01,35,8.50
2014,05,05,01,36,8.50
2014,05,05,01,37,8.50
2014,05,05,01,38,8.50
2014,05,05,01,39,8.50
2014,05,05,01,40,8.50
2014,05,05,01,41,8.50
2014,05,05,01,42,8.50
2014,05,05,01,43,8.40
2014,05,05,01,44,8.40
2014,05,05,01,45,8.40
2014,05,05,01,46,8.40
2014,05,05,01,47,8.40
2014,05,05,01,48,8.40
2014,05,05,01,49,8.40
2014,05,05,01,50,8.40
2014,05,05,01,51,8.40
2014,05,05,01,52,8.40
2014,05,05,01,53,8.40
2014,05,05,01,54,8.40
2014,05,05,01,55,8.40
2014,05,05,01,56,8.40
2014,05,05,01,57,8.40
2014,05,05,01,58,8.40
2014,05,05,01,59,8.30
2014,05,05,02,00,8.30
2014,05,05,02,01,8.30
2014,05,05,02,02,8.30
2014,05,05,02,03,8.30
2014,05,05,02,04,8.30
2014,05,05,02,05,8.30
2014,05,05,02,06,8.30
2014,05,05,02,07,8.30
2014,05,05,02,08,8.30
2014,05,05,02,09,8.30
2014,05,05,02,10,8.20
2014,05,05,02,11,8.20
2014,05,05,02,12,8.20
2014,05,05,02,13,8.20
2014,05,05,02,14,8.20
2014,05,05,02,15,8.20
2014,05,05,02,16,8.20
2014,05,05,02,17,8.20
2014,05,05,02,18,8.10
2014,05,05,02,19,8.10
2014,05,05,02,20,8.10
2014,05,05,02,21,8.10
2014,05,05,02,22,8.10
2014,05,05,02,23,8.00
2014,05,05,02,24,8.00
2014,05,05,02,25,8.00
2014,05,05,02,26,8.00
2014,05,05,02,27,8.00
2014,05,05,02,28,7.90
2014,05,05,02,29,7.90
2014,05,05,02,30,7.90
2014,05,05,02,31,7.90
2014,05,05,02,32,7.90
2014,05,05,02,33,7.90
2014,05,05,02,34,7.80
2014,05,05,02,35,7.80
2014,05,05,02,36,7.80
2014,05,05,02,37,7.80
2014,05,05,02,38,7.80
2014,05,05,02,39,7.80
2014,05,05,02,40,7.80
2014,05,05,02,41,7.80
2014,05,05,02,42,7.80
2014,05,05,02,43,7.80
2014,05,05,02,44,7.70
2014,05,05,02,45,7.70
2014,05,05,02,46,7.60
2014,05,05,02,47,7.50
2014,05,05,02,48,7.50
2014,05,05,02,49,7.40
2014,05,05,02,50,7.40
2014,05,05,02,51,7.30
2014,05,05,02,52,7.30
2014,05,05,02,53,7.30
2014,05,05,02,54,7.30
2014,05,05,02,55,7.30
2014,05,05,02,56,7.30
2014,05,05,02,57,7.30
2014,05,05,02,58,7.30
2014,05,05,02,59,7.30
2014,05,05,03,00,7.30
2014,05,05,03,01,7.30
2014,05,05,03,02,7.30
2014,05,05,03,03,7.30
2014,05,05,03,04,7.20
2014,05,05,03,05,7.20
2014,05,05,03,06,7.20
2014,05,05,03,07,7.20
2014,05,05,03,08,7.20
2014,05,05,03,09,7.20
2014,05,05,03,10,7.10
2014,05,05,03,11,7.10
2014,05,05,03,12,7.10
2014,05,05,03,13,7.10
2014,05,05,03,14,7.10
2014,05,05,03,15,7.10
2014,05,05,03,16,7.10
2014,05,05,03,17,7.10
2014,05,05,03,18,7.00
2014,05,05,03,19,7.00
2014,05,05,03,20,7.00
2014,05,05,03,21,7.00
2014,05,05,03,22,7.00
2014,05,05,03,23,7.00
2014,05,05,03,24,7.00
2014,05,05,03,25,6.90
2014,05,05,03,26,6.90
2014,05,05,03,27,6.90
2014,05,05,03,28,6.90
2014,05,05,03,29,6.90
2014,05,05,03,30,6.90
2014,05,05,03,31,6.90
2014,05,05,03,32,6.90
2014,05,05,03,33,6.90
2014,05,05,03,34,6.90
2014,05,05,03,35,6.90
2014,05,05,03,36,6.90
2014,05,05,03,37,6.90
2014,05,05,03,38,6.90
2014,05,05,03,39,6.90
2014,05,05,03,40,6.90
2014,05,05,03,41,6.90
2014,05,05,03,42,6.90
2014,05,05,03,43,7.00
2014,05,05,03,44,7.00
2014,05,05,03,45,7.00
2014,05,05,03,46,7.00
2014,05,05,03,47,7.00
2014,05,05,03,48,7.00
2014,05,05,03,49,7.00
2014,05,05,03,50,7.00
2014,05,05,03,51,7.00
2014,05,05,03,52,7.00
2014,05,05,03,53,7.00
2014,05,05,03,54,7.00
2014,05,05,03,55,7.00
2014,05,05,03,56,7.00
2014,05,05,03,57,7.00
2014,05,05,03,58,6.90
2014,05,05,03,59,6.90
2014,05,05,04,00,7.00
2014,05,05,04,01,6.90
2014,05,05,04,02,6.90
2014,05,05,04,03,6.90
2014,05,05,04,04,6.90
2014,05,05,04,05,6.90
2014,05,05,04,06,6.90
2014,05,05,04,07,6.90
2014,05,05,04,08,6.90
2014,05,05,04,09,6.90
2014,05,05,04,10,6.90
2014,05,05,04,11,6.90
2014,05,05,04,12,6.90
2014,05,05,04,13,6.90
2014,05,05,04,14,6.90
2014,05,05,04,15,6.90
2014,05,05,04,16,6.90
2014,05,05,04,17,6.90
2014,05,05,04,18,6.80
2014,05,05,04,19,6.80
2014,05,05,04,20,6.80
2014,05,05,04,21,6.80
2014,05,05,04,22,6.80
2014,05,05,04,23,6.80
2014,05,05,04,24,6.80
2014,05,05,04,25,6.80
2014,05,05,04,26,6.80
2014,05,05,04,27,6.80
2014,05,05,04,28,6.80
2014,05,05,04,29,6.80
2014,05,05,04,30,6.80
2014,05,05,04,31,6.80
2014,05,05,04,32,6.80
2014,05,05,04,33,6.80
2014,05,05,04,34,6.80
2014,05,05,04,35,6.80
2014,05,05,04,36,6.80
2014,05,05,04,37,6.80
2014,05,05,04,38,6.80
2014,05,05,04,39,6.80
2014,05,05,04,40,6.80
2014,05,05,04,41,6.80
2014,05,05,04,42,6.70
2014,05,05,04,43,6.70
2014,05,05,04,44,6.70
2014,05,05,04,45,6.70
2014,05,05,04,46,6.70
2014,05,05,04,47,6.70
2014,05,05,04,48,6.70
2014,05,05,04,49,6.70
2014,05,05,04,50,6.70
2014,05,05,04,51,6.70
2014,05,05,04,52,6.60
2014,05,05,04,53,6.60
2014,05,05,04,54,6.60
2014,05,05,04,55,6.60
2014,05,05,04,56,6.60
2014,05,05,04,57,6.60
2014,05,05,04,58,6.60
2014,05,05,04,59,6.50
2014,05,05,05,00,6.50
2014,05,05,05,01,6.50
2014,05,05,05,02,6.50
2014,05,05,05,03,6.40
2014,05,05,05,04,6.40
2014,05,05,05,05,6.40
2014,05,05,05,06,6.40
2014,05,05,05,07,6.40
2014,05,05,05,08,6.40
2014,05,05,05,09,6.40
2014,05,05,05,10,6.30
2014,05,05,05,11,6.30
2014,05,05,05,12,6.30
2014,05,05,05,13,6.30
2014,05,05,05,14,6.30
2014,05,05,05,15,6.30
2014,05,05,05,16,6.30
2014,05,05,05,17,6.30
2014,05,05,05,18,6.30
2014,05,05,05,19,6.30
2014,05,05,05,20,6.30
2014,05,05,05,21,6.30
2014,05,05,05,22,6.30
2014,05,05,05,23,6.30
2014,05,05,05,24,6.30
2014,05,05,05,25,6.30
2014,05,05,05,26,6.30
2014,05,05,05,27,6.30
2014,05,05,05,28,6.30
2014,05,05,05,29,6.30
2014,05,05,05,30,6.30
2014,05,05,05,31,6.30
2014,05,05,05,32,6.30
2014,05,05,05,33,6.30
2014,05,05,05,34,6.30
2014,05,05,05,35,6.30
2014,05,05,05,36,6.30
2014,05,05,05,37,6.30
2014,05,05,05,38,6.40
2014,05,05,05,39,6.40
2014,05,05,05,40,6.40
2014,05,05,05,41,6.40
2014,05,05,05,42,6.40
2014,05,05,05,43,6.40
2014,05,05,05,44,6.40
2014,05,05,05,45,6.50
2014,05,05,05,46,6.50
2014,05,05,05,47,6.50
2014,05,05,05,48,6.50
2014,05,05,05,49,6.50
2014,05,05,05,50,6.50
2014,05,05,05,51,6.50
2014,05,05,05,52,6.50
2014,05,05,05,53,6.50
2014,05,05,05,54,6.50
2014,05,05,05,55,6.50
2014,05,05,05,56,6.50
2014,05,05,05,57,6.50
2014,05,05,05,58,6.50
2014,05,05,05,59,6.50
2014,05,05,06,00,6.60
2014,05,05,06,01,6.60
2014,05,05,06,02,6.60
2014,05,05,06,03,6.60
2014,05,05,06,04,6.60
2014,05,05,06,05,6.60
2014,05,05,06,06,6.60
2014,05,05,06,07,6.60
2014,05,05,06,08,6.70
2014,05,05,06,09,6.70
2014,05,05,06,10,6.70
2014,05,05,06,11,6.70
2014,05,05,06,12,6.70
2014,05,05,06,13,6.70
2014,05,05,06,14,6.70
2014,05,05,06,15,6.70
2014,05,05,06,16,6.70
2014,05,05,06,17,6.70
2014,05,05,06,18,6.70
2014,05,05,06,19,6.70
2014,05,05,06,20,6.80
2014,05,05,06,21,6.80
2014,05,05,06,22,6.80
2014,05,05,06,23,6.80
2014,05,05,06,24,6.80
2014,05,05,06,25,6.80
2014,05,05,06,26,6.90
2014,05,05,06,27,6.90
2014,05,05,06,28,6.90
2014,05,05,06,29,6.90
2014,05,05,06,30,7.00
2014,05,05,06,31,7.00
2014,05,05,06,32,7.00
2014,05,05,06,33,7.00
2014,05,05,06,34,7.10
2014,05,05,06,35,7.10
2014,05,05,06,36,7.10
2014,05,05,06,37,7.10
2014,05,05,06,38,7.10
2014,05,05,06,39,7.10
2014,05,05,06,40,7.10
2014,05,05,06,41,7.10
2014,05,05,06,42,7.10
2014,05,05,06,43,7.10
2014,05,05,06,44,7.20
2014,05,05,06,45,7.20
2014,05,05,06,46,7.20
2014,05,05,06,47,7.20
2014,05,05,06,48,7.20
2014,05,05,06,49,7.20
2014,05,05,06,50,7.20
2014,05,05,06,51,7.20
2014,05,05,06,52,7.30
2014,05,05,06,53,7.30
2014,05,05,06,54,7.30
2014,05,05,06,55,7.30
2014,05,05,06,56,7.30
2014,05,05,06,57,7.30
2014,05,05,06,58,7.30
2014,05,05,06,59,7.30
2014,05,05,07,00,7.40
2014,05,05,07,01,7.40
2014,05,05,07,02,7.40
2014,05,05,07,03,7.40
2014,05,05,07,04,7.40
2014,05,05,07,05,7.40
2014,05,05,07,06,7.50
2014,05,05,07,07,7.50
2014,05,05,07,08,7.50
2014,05,05,07,09,7.50
2014,05,05,07,10,7.60
2014,05,05,07,11,7.60
2014,05,05,07,12,7.60
2014,05,05,07,13,7.60
2014,05,05,07,14,7.60
2014,05,05,07,15,7.60
2014,05,05,07,16,7.70
2014,05,05,07,17,7.70
2014,05,05,07,18,7.70
2014,05,05,07,19,7.70
2014,05,05,07,20,7.70
2014,05,05,07,21,7.70
2014,05,05,07,22,7.70
2014,05,05,07,23,7.80
2014,05,05,07,24,7.80
2014,05,05,07,25,7.80
2014,05,05,07,26,7.80
2014,05,05,07,27,7.80
2014,05,05,07,28,7.90
2014,05,05,07,29,7.90
2014,05,05,07,30,7.90
2014,05,05,07,31,7.90
2014,05,05,07,32,7.90
2014,05,05,07,33,7.90
2014,05,05,07,34,8.00
2014,05,05,07,35,8.00
2014,05,05,07,36,8.00
2014,05,05,07,37,8.00
2014,05,05,07,38,8.00
2014,05,05,07,39,8.10
2014,05,05,07,40,8.10
2014,05,05,07,41,8.10
2014,05,05,07,42,8.10
2014,05,05,07,43,8.10
2014,05,05,07,44,8.10
2014,05,05,07,45,8.20
2014,05,05,07,46,8.20
2014,05,05,07,47,8.20
2014,05,05,07,48,8.20
2014,05,05,07,49,8.20
2014,05,05,07,50,8.30
2014,05,05,07,51,8.30
2014,05,05,07,52,8.30
2014,05,05,07,53,8.30
2014,05,05,07,54,8.30
2014,05,05,07,55,8.40
2014,05,05,07,56,8.40
2014,05,05,07,57,8.40
2014,05,05,07,58,8.50
2014,05,05,07,59,8.50
2014,05,05,08,00,8.50
2014,05,05,08,01,8.50
2014,05,05,08,02,8.60
2014,05,05,08,03,8.60
2014,05,05,08,04,8.60
2014,05,05,08,05,8.60
2014,05,05,08,06,8.60
2014,05,05,08,07,8.70
2014,05,05,08,08,8.70
2014,05,05,08,09,8.70
2014,05,05,08,10,8.70
2014,05,05,08,11,8.80
2014,05,05,08,12,8.80
2014,05,05,08,13,8.80
2014,05,05,08,14,8.80
2014,05,05,08,15,8.80
2014,05,05,08,16,8.90
2014,05,05,08,17,8.90
2014,05,05,08,18,8.90
2014,05,05,08,19,8.90
2014,05,05,08,20,8.90
2014,05,05,08,21,8.90
2014,05,05,08,22,9.00
2014,05,05,08,23,9.00
2014,05,05,08,24,9.00
2014,05,05,08,25,9.00
2014,05,05,08,26,9.00
2014,05,05,08,27,9.10
2014,05,05,08,28,9.10
2014,05,05,08,29,9.10
2014,05,05,08,30,9.10
2014,05,05,08,31,9.20
2014,05,05,08,32,9.20
2014,05,05,08,33,9.20
2014,05,05,08,34,9.20
2014,05,05,08,35,9.30
2014,05,05,08,36,9.30
2014,05,05,08,37,9.40
2014,05,05,08,38,9.40
2014,05,05,08,39,9.50
2014,05,05,08,40,9.50
2014,05,05,08,41,9.60
2014,05,05,08,42,9.60
2014,05,05,08,43,9.70
2014,05,05,08,44,9.70
2014,05,05,08,45,9.70
2014,05,05,08,46,9.70
2014,05,05,08,47,9.80
2014,05,05,08,48,9.80
2014,05,05,08,49,9.80
2014,05,05,08,50,9.80
2014,05,05,08,51,9.90
2014,05,05,08,52,9.90
2014,05,05,08,53,10.00
2014,05,05,08,54,10.00
2014,05,05,08,55,10.00
2014,05,05,08,56,10.10
2014,05,05,08,57,10.10
2014,05,05,08,58,10.10
2014,05,05,08,59,10.10
2014,05,05,09,00,10.20
2014,05,05,09,01,10.20
2014,05,05,09,02,10.20
2014,05,05,09,03,10.20
2014,05,05,09,04,10.20
2014,05,05,09,05,10.30
2014,05,05,09,06,10.30
2014,05,05,09,07,10.30
2014,05,05,09,08,10.30
2014,05,05,09,09,10.30
2014,05,05,09,10,10.30
2014,05,05,09,11,10.30
2014,05,05,09,12,10.40
2014,05,05,09,13,10.40
2014,05,05,09,14,10.40
2014,05,05,09,15,10.40
2014,05,05,09,16,10.40
2014,05,05,09,17,10.40
2014,05,05,09,18,10.50
2014,05,05,09,19,10.50
2014,05,05,09,20,10.60
2014,05,05,09,21,10.60
2014,05,05,09,22,10.70
2014,05,05,09,23,10.70
2014,05,05,09,24,10.70
2014,05,05,09,25,10.80
2014,05,05,09,26,10.80
2014,05,05,09,27,10.90
2014,05,05,09,28,10.90
2014,05,05,09,29,11.00
2014,05,05,09,30,11.00
2014,05,05,09,31,11.10
2014,05,05,09,32,11.10
2014,05,05,09,33,11.20
2014,05,05,09,34,11.30
2014,05,05,09,35,11.30
2014,05,05,09,36,11.30
2014,05,05,09,37,11.30
2014,05,05,09,38,11.40
2014,05,05,09,39,11.40
2014,05,05,09,40,11.40
2014,05,05,09,41,11.40
2014,05,05,09,42,11.50
2014,05,05,09,43,11.50
2014,05,05,09,44,11.60
2014,05,05,09,45,11.60
2014,05,05,09,46,11.60
2014,05,05,09,47,11.60
2014,05,05,09,48,11.60
2014,05,05,09,49,11.60
2014,05,05,09,50,11.60
2014,05,05,09,51,11.60
2014,05,05,09,52,11.60
2014,05,05,09,53,11.60
2014,05,05,09,54,11.60
2014,05,05,09,55,11.60
2014,05,05,09,56,11.60
2014,05,05,09,57,11.70
2014,05,05,09,58,11.70
2014,05,05,09,59,11.80
2014,05,05,10,00,11.80
2014,05,05,10,01,11.90
2014,05,05,10,02,11.90
2014,05,05,10,03,12.00
2014,05,05,10,04,12.10
2014,05,05,10,05,12.10
2014,05,05,10,06,12.20
2014,05,05,10,07,12.30
2014,05,05,10,08,12.30
2014,05,05,10,09,12.30
2014,05,05,10,10,12.30
2014,05,05,10,11,12.30
2014,05,05,10,12,12.20
2014,05,05,10,13,12.20
2014,05,05,10,14,12.30
2014,05,05,10,15,12.30
2014,05,05,10,16,12.30
2014,05,05,10,17,12.30
2014,05,05,10,18,12.30
2014,05,05,10,19,12.30
2014,05,05,10,20,12.30
2014,05,05,10,21,12.30
2014,05,05,10,22,12.40
2014,05,05,10,23,12.40
2014,05,05,10,24,12.40
2014,05,05,10,25,12.40
2014,05,05,10,26,12.40
2014,05,05,10,27,12.40
2014,05,05,10,28,12.40
2014,05,05,10,29,12.40
2014,05,05,10,30,12.40
2014,05,05,10,31,12.40
2014,05,05,10,32,12.50
2014,05,05,10,33,12.50
2014,05,05,10,34,12.60
2014,05,05,10,35,12.70
2014,05,05,10,36,12.70
2014,05,05,10,37,12.80
2014,05,05,10,38,12.80
2014,05,05,10,39,12.90
2014,05,05,10,40,13.00
2014,05,05,10,41,13.00
2014,05,05,10,42,13.00
2014,05,05,10,43,13.10
2014,05,05,10,44,13.10
2014,05,05,10,45,13.20
2014,05,05,10,46,13.20
2014,05,05,10,47,13.30
2014,05,05,10,48,13.30
2014,05,05,10,49,13.40
2014,05,05,10,50,13.40
2014,05,05,10,51,13.30
2014,05,05,10,52,13.30
2014,05,05,10,53,13.30
2014,05,05,10,54,13.30
2014,05,05,10,55,13.30
2014,05,05,10,56,13.40
2014,05,05,10,57,13.50
2014,05,05,10,58,13.50
2014,05,05,10,59,13.60
2014,05,05,11,00,13.60
2014,05,05,11,01,13.60
2014,05,05,11,02,13.60
2014,05,05,11,03,13.60
2014,05,05,11,04,13.60
2014,05,05,11,05,13.50
2014,05,05,11,06,13.50
2014,05,05,11,07,13.50
2014,05,05,11,08,13.60
2014,05,05,11,09,13.60
2014,05,05,11,10,13.60
2014,05,05,11,11,13.60
2014,05,05,11,12,13.70
2014,05,05,11,13,13.70
2014,05,05,11,14,13.70
2014,05,05,11,15,13.70
2014,05,05,11,16,13.70
2014,05,05,11,17,13.70
2014,05,05,11,18,13.70
2014,05,05,11,19,13.70
2014,05,05,11,20,13.80
2014,05,05,11,21,13.80
2014,05,05,11,22,13.80
2014,05,05,11,23,13.80
2014,05,05,11,24,13.80
2014,05,05,11,25,13.90
2014,05,05,11,26,13.90
2014,05,05,11,27,14.00
2014,05,05,11,28,14.00
2014,05,05,11,29,14.10
2014,05,05,11,30,14.20
2014,05,05,11,31,14.20
2014,05,05,11,32,14.30
2014,05,05,11,33,14.40
2014,05,05,11,34,14.40
2014,05,05,11,35,14.50
2014,05,05,11,36,14.50
2014,05,05,11,37,14.60
2014,05,05,11,38,14.70
2014,05,05,11,39,14.70
2014,05,05,11,40,14.80
2014,05,05,11,41,14.80
2014,05,05,11,42,14.80
2014,05,05,11,43,14.70
2014,05,05,11,44,14.60
2014,05,05,11,45,14.60
2014,05,05,11,46,14.50
2014,05,05,11,47,14.40
2014,05,05,11,48,14.30
2014,05,05,11,49,14.20
2014,05,05,11,50,14.20
2014,05,05,11,51,14.20
2014,05,05,11,52,14.30
2014,05,05,11,53,14.40
2014,05,05,11,54,14.50
2014,05,05,11,55,14.60
2014,05,05,11,56,14.70
2014,05,05,11,57,14.80
2014,05,05,11,58,14.80
2014,05,05,11,59,14.80
2014,05,05,12,00,14.80
2014,05,05,12,01,14.90
2014,05,05,12,02,14.90
2014,05,05,12,03,14.90
2014,05,05,12,04,15.00
2014,05,05,12,05,15.00
2014,05,05,12,06,15.10
2014,05,05,12,07,15.10
2014,05,05,12,08,15.20
2014,05,05,12,09,15.20
2014,05,05,12,10,15.30
2014,05,05,12,11,15.40
2014,05,05,12,12,15.50
2014,05,05,12,13,15.60
2014,05,05,12,14,15.70
2014,05,05,12,15,15.80
2014,05,05,12,16,15.80
2014,05,05,12,17,15.80
2014,05,05,12,18,15.80
2014,05,05,12,19,15.80
2014,05,05,12,20,15.70
2014,05,05,12,21,15.60
2014,05,05,12,22,15.60
2014,05,05,12,23,15.60
2014,05,05,12,24,15.60
2014,05,05,12,25,15.60
2014,05,05,12,26,15.60
2014,05,05,12,27,15.60
2014,05,05,12,28,15.60
2014,05,05,12,29,15.60
2014,05,05,12,30,15.60
2014,05,05,12,31,15.70
2014,05,05,12,32,15.80
2014,05,05,12,33,15.80
2014,05,05,12,34,15.70
2014,05,05,12,35,15.60
2014,05,05,12,36,15.60
2014,05,05,12,37,15.50
2014,05,05,12,38,15.50
2014,05,05,12,39,15.40
2014,05,05,12,40,15.30
2014,05,05,12,41,15.20
2014,05,05,12,42,15.20
2014,05,05,12,43,15.20
2014,05,05,12,44,15.10
2014,05,05,12,45,15.10
2014,05,05,12,46,15.10
2014,05,05,12,47,15.10
2014,05,05,12,48,15.10
2014,05,05,12,49,15.10
2014,05,05,12,50,15.10
2014,05,05,12,51,15.20
2014,05,05,12,52,15.30
2014,05,05,12,53,15.30
2014,05,05,12,54,15.40
2014,05,05,12,55,15.40
2014,05,05,12,56,15.40
2014,05,05,12,57,15.50
2014,05,05,12,58,15.40
2014,05,05,12,59,15.50
2014,05,05,13,00,15.50
2014,05,05,13,01,15.70
2014,05,05,13,02,15.70
2014,05,05,13,03,15.80
2014,05,05,13,04,15.80
2014,05,05,13,05,15.90
2014,05,05,13,06,15.90
2014,05,05,13,07,16.00
2014,05,05,13,08,15.90
2014,05,05,13,09,15.90
2014,05,05,13,10,15.90
2014,05,05,13,11,16.00
2014,05,05,13,12,16.00
2014,05,05,13,13,16.10
2014,05,05,13,14,16.20
2014,05,05,13,15,16.30
2014,05,05,13,16,16.30
2014,05,05,13,17,16.40
2014,05,05,13,18,16.40
2014,05,05,13,19,16.40
2014,05,05,13,20,16.30
2014,05,05,13,21,16.30
2014,05,05,13,22,16.10
2014,05,05,13,23,16.00
2014,05,05,13,24,16.00
2014,05,05,13,25,15.90
2014,05,05,13,26,15.90
2014,05,05,13,27,15.90
2014,05,05,13,28,15.90
2014,05,05,13,29,15.90
2014,05,05,13,30,16.00
2014,05,05,13,31,16.00
2014,05,05,13,32,16.00
2014,05,05,13,33,16.00
2014,05,05,13,34,15.90
2014,05,05,13,35,15.80
2014,05,05,13,36,15.80
2014,05,05,13,37,15.80
2014,05,05,13,38,15.80
2014,05,05,13,39,15.80
2014,05,05,13,40,15.90
2014,05,05,13,41,16.00
2014,05,05,13,42,16.10
2014,05,05,13,43,16.10
2014,05,05,13,44,16.10
2014,05,05,13,45,16.10
2014,05,05,13,46,16.00
2014,05,05,13,47,15.90
2014,05,05,13,48,15.80
2014,05,05,13,49,15.80
2014,05,05,13,50,15.70
2014,05,05,13,51,15.70
2014,05,05,13,52,15.70
2014,05,05,13,53,15.70
2014,05,05,13,54,15.60
2014,05,05,13,55,15.60
2014,05,05,13,56,15.70
2014,05,05,13,57,15.70
2014,05,05,13,58,15.70
2014,05,05,13,59,15.80
2014,05,05,14,00,15.80
2014,05,05,14,01,15.80
2014,05,05,14,02,15.80
2014,05,05,14,03,15.80
2014,05,05,14,04,15.80
2014,05,05,14,05,15.90
2014,05,05,14,06,16.00
2014,05,05,14,07,16.00
2014,05,05,14,08,16.10
2014,05,05,14,09,16.10
2014,05,05,14,10,16.10
2014,05,05,14,11,16.10
2014,05,05,14,12,16.20
2014,05,05,14,13,16.20
2014,05,05,14,14,16.20
2014,05,05,14,15,16.20
2014,05,05,14,16,16.20
2014,05,05,14,17,16.20
2014,05,05,14,18,16.20
2014,05,05,14,19,16.10
2014,05,05,14,20,16.10
2014,05,05,14,21,16.00
2014,05,05,14,22,15.90
2014,05,05,14,23,15.90
2014,05,05,14,24,15.90
2014,05,05,14,25,15.90
2014,05,05,14,26,15.90
2014,05,05,14,27,15.80
2014,05,05,14,28,15.80
2014,05,05,14,29,15.80
2014,05,05,14,30,15.80
2014,05,05,14,31,15.70
2014,05,05,14,32,15.70
2014,05,05,14,33,15.70
2014,05,05,14,34,15.70
2014,05,05,14,35,15.70
2014,05,05,14,36,15.70
2014,05,05,14,37,15.70
2014,05,05,14,38,15.80
2014,05,05,14,39,15.80
2014,05,05,14,40,15.80
2014,05,05,14,41,15.80
2014,05,05,14,42,15.80
2014,05,05,14,43,15.80
2014,05,05,14,44,15.70
2014,05,05,14,45,15.70
2014,05,05,14,46,15.80
2014,05,05,14,47,15.80
2014,05,05,14,48,15.80
2014,05,05,14,49,15.80
2014,05,05,14,50,15.80
2014,05,05,14,51,15.80
2014,05,05,14,52,15.80
2014,05,05,14,53,15.80
2014,05,05,14,54,15.80
2014,05,05,14,55,15.90
2014,05,05,14,56,16.00
2014,05,05,14,57,16.10
2014,05,05,14,58,16.10
2014,05,05,14,59,16.20
2014,05,05,15,00,16.20
2014,05,05,15,01,16.30
2014,05,05,15,02,16.20
2014,05,05,15,03,16.10
2014,05,05,15,04,16.10
2014,05,05,15,05,16.00
2014,05,05,15,06,16.10
2014,05,05,15,07,16.00
2014,05,05,15,08,15.90
2014,05,05,15,09,15.80
2014,05,05,15,10,15.70
2014,05,05,15,11,15.60
2014,05,05,15,12,15.60
2014,05,05,15,13,15.60
2014,05,05,15,14,15.60
2014,05,05,15,15,15.50
2014,05,05,15,16,15.50
2014,05,05,15,17,15.60
2014,05,05,15,18,15.60
2014,05,05,15,19,15.70
2014,05,05,15,20,15.70
2014,05,05,15,21,15.80
2014,05,05,15,22,15.80
2014,05,05,15,23,15.90
2014,05,05,15,24,15.90
2014,05,05,15,25,15.90
2014,05,05,15,26,15.90
2014,05,05,15,27,16.00
2014,05,05,15,28,16.00
2014,05,05,15,29,16.00
2014,05,05,15,30,16.00
2014,05,05,15,31,16.10
2014,05,05,15,32,16.10
2014,05,05,15,33,16.20
2014,05,05,15,34,16.20
2014,05,05,15,35,16.20
2014,05,05,15,36,16.20
2014,05,05,15,37,16.20
2014,05,05,15,38,16.20
2014,05,05,15,39,16.20
2014,05,05,15,40,16.20
2014,05,05,15,41,16.10
2014,05,05,15,42,16.10
2014,05,05,15,43,16.10
2014,05,05,15,44,16.10
2014,05,05,15,45,16.10
2014,05,05,15,46,16.20
2014,05,05,15,47,16.10
2014,05,05,15,48,16.10
2014,05,05,15,49,16.20
2014,05,05,15,50,16.20
2014,05,05,15,51,16.20
2014,05,05,15,52,16.30
2014,05,05,15,53,16.30
2014,05,05,15,54,16.40
2014,05,05,15,55,16.40
2014,05,05,15,56,16.50
2014,05,05,15,57,16.60
2014,05,05,15,58,16.70
2014,05,05,15,59,16.70
2014,05,05,16,00,16.80
2014,05,05,16,01,16.90
2014,05,05,16,02,16.90
2014,05,05,16,03,17.00
2014,05,05,16,04,17.00
2014,05,05,16,05,17.10
2014,05,05,16,06,17.10
2014,05,05,16,07,17.20
2014,05,05,16,08,17.20
2014,05,05,16,09,17.20
2014,05,05,16,10,17.20
2014,05,05,16,11,17.10
2014,05,05,16,12,17.10
2014,05,05,16,13,17.00
2014,05,05,16,14,17.00
2014,05,05,16,15,16.90
2014,05,05,16,16,16.90
2014,05,05,16,17,16.80
2014,05,05,16,18,16.70
2014,05,05,16,19,16.70
2014,05,05,16,20,16.60
2014,05,05,16,21,16.60
2014,05,05,16,22,16.50
2014,05,05,16,23,16.50
2014,05,05,16,24,16.40
2014,05,05,16,25,16.40
2014,05,05,16,26,16.40
2014,05,05,16,27,16.30
2014,05,05,16,28,16.30
2014,05,05,16,29,16.30
2014,05,05,16,30,16.20
2014,05,05,16,31,16.20
2014,05,05,16,32,16.20
2014,05,05,16,33,16.20
2014,05,05,16,34,16.20
2014,05,05,16,35,16.20
2014,05,05,16,36,16.20
2014,05,05,16,37,16.20
2014,05,05,16,38,16.20
2014,05,05,16,39,16.20
2014,05,05,16,40,16.20
2014,05,05,16,41,16.20
2014,05,05,16,42,16.30
2014,05,05,16,43,16.30
2014,05,05,16,44,16.40
2014,05,05,16,45,16.50
2014,05,05,16,46,16.70
2014,05,05,16,47,16.80
2014,05,05,16,48,16.90
2014,05,05,16,49,17.00
2014,05,05,16,50,17.00
2014,05,05,16,51,17.00
2014,05,05,16,52,17.00
2014,05,05,16,53,17.00
2014,05,05,16,54,17.00
2014,05,05,16,55,17.00
2014,05,05,16,56,16.90
2014,05,05,16,57,16.90
2014,05,05,16,58,16.80
2014,05,05,16,59,16.80
2014,05,05,17,00,16.80
2014,05,05,17,01,16.70
2014,05,05,17,02,16.70
2014,05,05,17,03,16.70
2014,05,05,17,04,16.70
2014,05,05,17,05,16.60
2014,05,05,17,06,16.60
2014,05,05,17,07,16.60
2014,05,05,17,08,16.60
2014,05,05,17,09,16.60
2014,05,05,17,10,16.60
2014,05,05,17,11,16.60
2014,05,05,17,12,16.50
2014,05,05,17,13,16.50
2014,05,05,17,14,16.40
2014,05,05,17,15,16.40
2014,05,05,17,16,16.40
2014,05,05,17,17,16.40
2014,05,05,17,18,16.40
2014,05,05,17,19,16.40
2014,05,05,17,20,16.30
2014,05,05,17,21,16.30
2014,05,05,17,22,16.20
2014,05,05,17,23,16.20
2014,05,05,17,24,16.20
2014,05,05,17,25,16.20
2014,05,05,17,26,16.20
2014,05,05,17,27,16.20
2014,05,05,17,28,16.20
2014,05,05,17,29,16.20
2014,05,05,17,30,16.20
2014,05,05,17,31,16.20
2014,05,05,17,32,16.20
2014,05,05,17,33,16.20
2014,05,05,17,34,16.20
2014,05,05,17,35,16.30
2014,05,05,17,36,16.30
2014,05,05,17,37,16.30
2014,05,05,17,38,16.40
2014,05,05,17,39,16.40
2014,05,05,17,40,16.50
2014,05,05,17,41,16.60
2014,05,05,17,42,16.60